ěÝzenÝ letovÚho provozu ╚eskÚ republiky
Letiste: LKMT Aktualizace: 07.07.2020 15:00:26  UTC
 METAR LKMT 07.07. 15:00 ...
METAR LKMT 071500Z 22006KT 9999 SCT038 17/10 Q1018 NOSIG RMK REG QNH 1017=
 TAF LKMT 07.07. 11:00 ...
TAF LKMT 071100Z 0712/0818 36006KT CAVOK      TEMPO 0712/0716 02010G20KT -SHRA SCT036      BECMG 0720/0722 23006KT      TEMPO 0808/0816 27016KT      BECMG 0810/0813 BKN036      TEMPO 0815/0818 -RA=